Location: Unspecified
(0.0000°N, 0.0000°E)
Time: 22:57:48
(UTC+00:00)

Envisat - Pass Details

Date: 25 July 2017
Orbit: 764 x 766 km, 98.2° (Epoch: 20 November)

Event Time Altitude Azimuth Distance (km) Brightness Sun altitude
Exits shadow 20:52:17 19° 325° (NW) 1,744 5.3 -38.6°
Drops below altitude 10° 20:53:46 10° 332° (NNW) 2,291 5.9 -38.9°
Sets 20:56:08 0° 338° (NNW) 3,214 6.8 -39.5°
